Home   Weather   Cambridge   Past weeks
Flag for USA

Past Weather in Cambridge, Massachusetts, USA — Yesterday and Last 2 Weeks

Now
50 °F

Light rain. Overcast.


Feels Like: 45 °F
Forecast: 54 / 47 °F
Wind: 14 mph from North

Location: Logan International Airport

Current Time: Apr 23, 2019 at 6:18:46 am

Latest Report: Apr 23, 2019 at 5:36 am


Visibility: 8 mi

Pressure: 29.91 "Hg

Humidity: 86%

Dew Point: 46 °F

Location of CambridgeLocation

Past Weather in Cambridge — Graph

°F

Cambridge Temperature Yesterday

Maximum temperature yesterday: 58 °F (at 12:33 pm)
Minimum temperature yesterday: 50 °F (at 5:54 am)
Average temperature yesterday: 53 °F

High & Low Weather Summary for the Past Weeks

 TemperatureHumidityPressure
High77 °F (Apr 19, 3:54 pm)97% (Apr 15, 3:32 am)30.35 "Hg (Apr 15, 3:32 am)
Low35 °F (Apr 11, 5:54 am)21% (Apr 16, 5:54 pm)29.18 "Hg (Apr 15, 2:54 pm)
Average53 °F72%29.92 "Hg
* Reported Apr 8 4:54 am — Apr 23 4:54 am, Cambridge. Weather by CustomWeather, © 2019

Note: Actual official high and low records may vary slightly from our data, if they occured in-between our weather recording intervals... More about our weather records

Advertising

Cambridge Weather History for the Previous 24 Hours

Scroll right to see more
 ConditionsComfort  
Time TempWeatherWind HumidityBarometerVisibility
4:54 am
Tue, Apr 23
50 °FLow clouds.13 mph86%29.90 "Hg10 mi
4:14 am49 °FDrizzle. Fog.13 mph90%29.89 "Hg4 mi
3:35 am48 °FDrizzle. Fog.16 mph93%29.90 "Hg2 mi
2:20 am48 °FFog.15 mph93%29.91 "Hg1 mi
2:13 am48 °FFog.16 mph93%29.91 "Hg2 mi
1:54 am48 °FFog.15 mph93%29.91 "Hg3 mi
12:07 am50 °FRain. Fog.12 mph89%29.93 "Hg3 mi
11:54 pm
Mon, Apr 22
50 °FLight rain. Fog.15 mph89%29.93 "Hg3 mi
10:54 pm52 °FLight rain. Fog.14 mph93%29.95 "Hg2 mi
9:54 pm54 °FHeavy rain. Fog.14 mph90%29.97 "Hg2 mi
8:54 pm55 °FRain. Fog.14 mph90%29.98 "Hg3 mi
7:54 pm54 °FHeavy rain. Fog.13 mph93%29.98 "Hg2 mi
6:54 pm54 °FRain. Fog.12 mph90%29.99 "Hg1 mi
6:25 pm53 °FRain. Fog.13 mph93%30.00 "Hg1 mi
6:20 pm53 °FRain. Fog.14 mph89%30.00 "Hg2 mi
5:43 pm53 °FRain. Fog.17 mph89%29.99 "Hg1 mi
5:30 pm53 °FHeavy rain. Fog.17 mph89%30.00 "Hg1 mi
5:11 pm54 °FLight rain. Fog.18 mph90%29.99 "Hg3 mi
3:54 pm54 °FRain. Fog.21 mph90%30.00 "Hg1 mi
2:54 pm53 °FHeavy rain. Fog.17 mph89%30.03 "Hg1 mi
1:54 pm52 °FLight rain. Fog.13 mph89%30.07 "Hg1 mi
1:33 pm53 °FLight rain. Fog.16 mph89%30.06 "Hg4 mi
1:03 pm55 °FLight rain. Fog.17 mph83%30.06 "Hg2 mi
12:54 pm56 °FLight rain. Fog.17 mph81%30.06 "Hg4 mi
12:33 pm58 °FMostly cloudy.14 mph72%30.06 "Hg10 mi
11:54 am57 °FMostly cloudy.14 mph74%30.07 "Hg10 mi
10:54 am56 °FMostly cloudy.14 mph81%30.08 "Hg10 mi
9:54 am55 °FFog.13 mph83%30.10 "Hg6 mi
9:15 am55 °FFog.13 mph87%30.11 "Hg3 mi
9:02 am54 °FFog.10 mph90%30.11 "Hg3 mi
8:54 am53 °FFog.14 mph89%30.10 "Hg1 mi
7:54 am51 °FFog.5 mph89%30.11 "Hg6 mi
7:43 am50 °FFog.6 mph89%30.10 "Hg6 mi
7:33 am50 °FFog.5 mph93%30.10 "Hg1 mi
6:54 am50 °FBroken clouds.No wind93%30.09 "Hg8 mi
6:10 am50 °FFog.5 mph89%30.08 "Hg6 mi
Weather by CustomWeather, © 2019

See weather overview